Wind_Speed
38 36 34 32 32 29 20 14 15 22 29 31 32 30 28 23 20 16 15 12 6 13 7 13 13 11 11 10 5 3 3 4 4 5 6 5 4 4 5 5 4 3 3 3 2 2 4 5 5
33 35 39 41 40 35 26 20 19 26 32 31 34 32 29 25 22 14 11 11 19 23 22 18 11 11 12 11 7 4 2 1 2 4 6 7 4 4 4 3 2 3 4 3 3 5 5 5 5
30 31 32 35 37 37 35 31 30 31 34 36 37 32 33 28 25 18 14 8 15 25 27 18 15 13 12 9 7 6 3 2 1 2 5 6 5 3 3 2 3 5 5 5 5 5 5 7 6
30 33 35 36 32 28 28 34 42 40 40 40 38 39 36 32 30 24 20 15 12 24 23 19 18 17 15 13 10 8 6 4 4 4 5 5 5 3 3 2 4 5 6 6 5 6 7 8 7
34 35 36 34 33 28 29 31 38 47 46 44 41 42 41 40 35 33 26 18 17 26 22 18 18 16 17 15 12 11 9 7 6 6 6 5 5 5 5 4 4 6 6 6 6 8 7 7 9
37 38 39 37 36 34 33 34 37 42 49 51 46 43 45 43 40 38 35 31 26 27 26 21 20 19 19 17 15 13 12 9 9 8 6 6 7 7 7 7 7 7 8 8 9 9 8 9 11
39 41 42 41 41 40 40 38 38 41 44 52 52 46 46 48 44 42 41 36 35 35 34 32 25 23 22 19 19 18 15 12 9 8 6 7 7 9 9 9 9 9 10 10 10 10 11 12 13
38 40 42 43 44 44 44 46 43 42 46 46 54 52 48 47 50 48 47 44 39 37 34 34 30 27 26 23 20 19 17 13 11 8 7 8 8 9 9 9 11 10 10 12 13 12 13 13 16
43 45 44 45 46 47 46 52 51 49 46 48 49 57 54 51 52 52 52 51 47 42 38 34 31 29 28 24 23 19 17 14 12 9 9 11 11 9 9 10 11 11 12 11 12 12 14 16 20
47 48 49 48 48 51 49 48 51 53 52 49 52 51 58 55 55 56 56 53 53 48 45 42 35 32 30 26 24 19 17 15 12 10 11 12 12 12 12 12 13 12 12 12 13 14 16 18 23
51 52 53 53 53 52 51 52 51 53 55 54 54 56 54 61 58 61 59 60 50 53 48 46 42 36 33 28 24 20 19 16 14 12 13 14 14 14 14 13 13 12 11 14 15 16 19 22 25
53 56 57 56 57 58 58 58 56 56 56 57 57 56 60 57 63 64 65 58 52 53 49 47 50 43 37 31 28 22 21 19 19 18 17 17 18 17 17 16 14 14 15 19 22 24 24 27 29
51 53 54 56 57 60 61 63 64 62 62 61 61 59 61 65 64 67 68 63 54 51 50 48 49 49 42 37 30 25 26 24 23 23 21 21 20 18 17 15 16 17 20 23 24 24 26 28 31
48 49 50 51 54 57 61 63 66 66 69 66 65 62 64 68 67 69 72 69 64 54 48 50 51 50 51 42 34 29 27 25 25 26 25 24 21 20 21 22 20 20 22 22 23 24 25 28 31
42 40 38 41 45 48 57 61 64 68 70 71 71 66 66 69 73 71 74 74 71 65 55 51 56 59 49 39 37 34 32 30 29 30 28 26 23 23 22 23 23 25 22 24 24 22 25 28 32
23 20 18 20 22 27 33 44 45 52 61 69 70 69 68 73 75 77 72 76 74 69 66 57 58 59 62 45 39 37 34 34 34 31 30 30 32 28 25 27 29 22 23 25 25 24 25 28 33
23 21 21 20 26 29 31 26 22 32 39 52 66 69 67 73 77 79 77 74 74 74 70 64 63 54 53 43 47 45 41 36 37 33 37 33 36 31 30 31 30 21 23 24 24 25 26 30 32
25 23 23 20 22 26 26 24 26 30 37 33 46 63 65 72 78 78 79 77 77 76 76 67 72 55 35 46 51 48 45 42 42 40 39 39 38 34 33 29 29 25 26 25 23 25 28 31 35
26 25 24 22 25 25 26 25 25 25 30 36 30 44 59 64 77 79 78 76 73 77 77 72 74 57 46 54 43 44 42 40 37 42 46 42 42 39 35 34 33 27 27 26 24 27 29 34 36
25 28 26 24 24 32 31 26 27 28 25 28 32 32 42 59 72 82 77 66 73 71 73 74 63 53 49 39 36 43 44 46 44 45 46 45 45 44 40 39 41 32 29 28 26 28 31 34 33
27 27 24 25 23 29 36 29 31 30 29 24 25 33 36 48 63 77 82 72 66 69 70 67 56 56 50 44 35 20 31 34 38 42 46 47 48 44 49 45 45 35 27 29 25 25 27 28 35
28 25 28 30 32 31 33 37 32 28 28 21 22 30 37 37 55 68 81 81 66 68 69 58 63 64 68 47 34 40 35 38 45 51 51 50 49 54 59 48 46 42 36 25 22 21 26 37 37
28 31 33 35 37 39 41 42 34 27 20 27 27 28 36 43 47 57 68 85 77 64 65 59 65 72 76 68 50 52 45 42 47 52 51 51 43 57 65 59 52 47 37 26 26 27 41 37 44
31 34 36 38 39 39 38 39 30 19 20 26 28 29 29 39 41 52 52 68 85 68 59 59 54 61 68 57 61 53 48 45 46 48 55 45 49 55 56 55 53 48 40 34 29 30 41 46 45
33 35 35 36 34 33 36 37 28 22 14 17 21 20 33 39 41 43 47 54 67 78 63 57 57 57 62 62 56 50 44 39 47 41 40 42 43 55 59 58 56 48 48 38 31 29 33 36 31
32 28 32 35 34 35 35 31 31 30 26 28 24 20 21 25 37 43 40 43 56 76 71 59 57 60 58 61 55 52 47 38 36 37 36 39 29 50 54 55 30 36 21 36 18 23 27 29 26
31 30 30 33 33 39 36 34 30 29 26 25 29 30 26 27 31 40 38 35 43 61 79 63 60 57 58 63 61 54 46 38 40 40 37 39 47 24 22 25 19 14 7 16 19 26 26 23 25
28 29 30 30 34 39 33 31 30 27 25 27 29 32 27 29 31 33 33 34 39 48 76 73 61 59 58 62 63 57 49 45 42 40 39 33 30 23 22 22 17 9 1 14 23 27 22 23 25
25 25 30 29 28 32 33 27 26 23 23 24 26 34 33 31 33 36 38 35 38 40 63 79 65 62 60 61 68 62 53 48 42 37 35 30 28 16 21 26 14 3 9 19 24 22 21 23 26
21 25 26 24 28 32 34 32 27 27 22 23 23 30 31 34 34 36 37 39 39 40 49 74 79 63 61 61 68 63 57 49 42 36 29 24 18 23 26 17 9 10 16 18 20 21 22 25 28
Wind_Direction
249 248 246 245 247 251 239 211 195 220 226 224 228 233 247 251 252 259 257 261 130 163 202 221 215 216 232 236 218 184 111 77 67 39 12 28 35 40 38 36 12 336 330 347 354 353 343 341 334
253 251 250 249 250 252 241 217 213 221 230 229 233 239 245 251 252 252 249 236 184 201 211 212 214 229 231 230 232 219 177 127 42 16 1 3 1 3 3 20 348 323 326 337 332 327 326 320 316
256 256 252 249 248 249 245 234 227 225 232 231 235 230 238 235 247 231 238 215 209 201 210 208 209 215 224 219 226 236 243 257 313 320 334 334 332 330 329 325 301 307 312 314 319 315 305 301 309
250 252 256 255 254 247 245 235 231 226 230 234 231 230 235 233 239 236 239 205 204 199 202 205 211 222 230 219 210 224 250 245 278 293 302 312 297 279 262 254 285 295 293 297 296 297 297 309 305
255 255 253 254 257 250 237 230 231 230 231 233 232 233 233 234 232 235 226 206 205 200 200 212 215 217 232 227 225 229 233 250 260 273 287 291 277 265 255 248 259 276 273 269 271 282 285 283 287
256 256 256 255 251 250 246 232 228 236 230 233 233 230 235 238 233 235 231 213 213 202 208 221 233 230 237 236 237 231 230 242 259 257 264 259 257 245 251 260 266 265 269 268 283 284 281 284 294
257 256 256 255 252 247 248 243 233 230 236 231 232 229 233 236 236 236 235 225 216 224 231 230 231 238 237 240 238 233 229 237 246 244 238 238 230 236 252 256 254 258 262 275 290 292 292 295 304
257 254 253 253 252 251 246 248 242 234 232 236 232 229 230 234 239 237 238 237 228 223 228 235 228 231 234 238 239 235 235 243 238 243 255 233 230 238 253 256 261 260 265 281 285 288 294 300 299
261 258 255 252 251 249 246 246 244 240 233 232 235 229 227 230 236 239 241 240 239 233 224 229 226 221 225 229 234 230 234 230 246 264 242 232 234 230 238 254 255 262 271 281 284 290 295 299 300
263 261 259 256 253 251 248 248 247 244 240 233 233 234 227 226 232 236 240 243 245 240 232 227 222 218 217 218 225 225 225 224 231 257 245 231 236 231 230 234 247 259 270 280 290 292 294 293 293
265 266 262 260 257 253 248 247 245 246 242 236 232 234 232 228 227 234 237 241 239 245 244 236 231 222 211 215 218 221 221 220 222 231 232 229 232 226 226 234 247 262 280 289 289 290 288 288 292
272 267 264 264 261 256 250 243 240 241 241 240 233 230 234 230 226 231 237 239 232 239 243 241 235 226 212 208 217 216 212 211 216 214 213 218 222 222 232 242 247 266 286 291 285 280 283 286 290
277 273 272 268 264 260 255 249 243 237 236 236 235 228 229 233 227 227 234 235 236 237 242 235 234 235 215 206 211 214 221 215 214 207 208 214 216 223 233 246 261 270 281 279 281 279 283 288 291
274 269 263 260 256 253 253 250 248 241 236 233 233 228 227 232 231 228 228 233 236 239 235 234 229 237 225 206 204 213 217 217 212 211 207 212 218 229 238 247 267 281 278 281 281 282 286 290 295
275 268 265 260 258 257 252 247 247 246 239 234 232 227 223 226 231 230 229 230 234 233 233 234 232 231 214 209 206 206 204 207 209 209 206 212 216 229 250 250 266 276 276 278 277 284 288 294 302
265 259 253 266 268 267 261 253 252 254 249 239 233 231 222 222 227 230 230 230 231 235 235 230 220 234 219 202 210 208 210 209 210 208 211 218 227 239 253 260 259 270 271 273 279 285 294 306 312
257 260 261 265 273 270 279 293 286 267 259 247 236 232 226 221 223 228 231 229 230 231 233 237 234 240 200 207 213 210 198 205 209 216 225 229 236 244 246 250 255 259 268 276 284 295 305 309 312
262 266 263 266 273 273 277 287 294 274 260 254 242 232 228 221 223 226 229 231 227 227 232 231 236 240 229 221 207 208 209 206 213 223 230 237 243 243 245 247 254 259 267 276 290 299 305 310 313
265 269 268 272 278 277 275 282 286 282 272 258 249 236 229 225 222 224 229 231 230 231 224 227 231 239 240 230 197 209 209 215 221 237 248 240 243 241 243 248 252 256 265 272 286 298 305 307 314
273 276 272 276 275 279 278 277 282 281 283 268 249 240 229 221 222 224 226 229 229 233 231 228 225 228 230 212 198 210 214 219 226 234 243 249 245 246 244 245 248 252 255 266 281 292 300 306 314
268 275 282 281 274 276 281 279 278 281 277 273 258 237 230 220 221 224 222 223 225 230 233 230 228 219 207 209 200 240 239 233 232 237 241 243 243 246 243 241 250 249 250 255 270 287 300 310 313
266 272 277 283 284 285 278 281 272 274 278 267 249 240 230 231 224 225 225 221 222 222 230 225 217 216 230 224 233 248 237 237 236 235 236 235 243 249 253 244 245 252 253 249 261 278 292 296 301
279 282 285 287 288 289 286 283 280 274 261 248 238 233 231 231 230 231 229 222 218 222 225 217 225 221 223 229 231 241 232 234 242 236 249 250 253 254 255 259 258 253 247 245 252 268 278 284 293
277 284 285 288 291 289 289 287 272 281 259 238 245 231 225 230 237 234 234 230 222 212 217 223 207 221 226 222 229 230 226 232 235 242 245 250 248 246 258 268 258 247 260 243 248 261 279 279 286
286 288 292 290 283 287 289 285 278 258 251 235 241 242 236 233 240 242 239 236 230 216 212 210 209 215 224 226 223 221 223 228 235 239 244 252 257 261 255 263 260 245 249 236 247 277 281 273 276
288 289 289 289 292 289 285 289 280 267 259 243 238 235 237 244 240 238 239 237 231 227 208 210 206 210 216 224 220 217 218 222 229 245 241 245 262 259 256 262 226 235 274 273 281 266 267 269 277
294 292 291 286 287 287 290 288 286 280 257 239 243 248 236 237 236 233 234 230 234 229 217 213 207 207 212 223 223 220 219 227 234 243 242 248 254 279 267 249 245 302 14 243 256 265 266 275 280
293 298 296 291 289 290 292 288 287 291 285 268 246 243 239 233 236 237 235 234 230 224 226 216 207 204 212 222 225 224 222 226 229 244 236 245 251 273 264 234 297 341 132 261 264 264 271 275 284
288 293 296 290 290 295 295 286 290 305 283 271 248 246 241 235 229 236 238 234 232 230 220 222 208 204 206 219 227 226 225 228 233 238 236 249 247 255 232 276 291 310 235 250 262 266 274 284 287
285 297 294 281 283 286 294 297 309 305 304 268 261 233 227 228 233 236 236 238 234 229 221 217 219 207 205 214 228 231 230 231 233 232 240 246 253 256 251 260 230 214 243 259 268 273 280 286 291
Height
5854 5857 5859 5862 5866 5867 5874 5879 5878 5874 5870 5871 5871 5874 5878 5881 5885 5890 5893 5895 5895 5898 5899 5902 5902 5903 5906 5907 5906 5906 5907 5908 5909 5909 5911 5910 5910 5910 5911 5911 5913 5913 5913 5913 5914 5914 5914 5914 5913
5848 5850 5852 5855 5857 5862 5870 5873 5872 5869 5865 5868 5868 5871 5876 5880 5883 5888 5890 5893 5894 5894 5894 5896 5900 5903 5904 5905 5905 5906 5906 5907 5909 5909 5911 5910 5911 5910 5911 5911 5912 5913 5913 5913 5913 5914 5913 5913 5912
5843 5843 5846 5847 5850 5857 5862 5867 5864 5863 5860 5863 5864 5869 5872 5877 5881 5885 5887 5889 5891 5891 5892 5893 5897 5900 5902 5903 5904 5906 5905 5906 5907 5908 5910 5910 5911 5911 5911 5911 5912 5913 5913 5912 5913 5913 5913 5912 5912
5838 5838 5839 5839 5846 5851 5853 5854 5854 5854 5853 5855 5861 5864 5869 5873 5876 5880 5885 5886 5889 5890 5892 5893 5896 5900 5902 5902 5902 5904 5905 5905 5906 5906 5908 5909 5910 5910 5910 5910 5911 5912 5912 5912 5911 5911 5911 5911 5911
5832 5832 5832 5834 5838 5845 5844 5845 5846 5845 5847 5848 5853 5857 5862 5863 5869 5874 5879 5882 5886 5888 5891 5893 5895 5896 5899 5900 5900 5902 5904 5905 5905 5905 5906 5907 5909 5909 5909 5909 5909 5910 5910 5910 5909 5909 5909 5909 5908
5824 5825 5826 5828 5832 5835 5833 5836 5839 5838 5841 5840 5846 5852 5853 5857 5862 5866 5873 5877 5883 5886 5887 5888 5892 5894 5896 5897 5898 5899 5902 5902 5903 5903 5904 5905 5907 5907 5908 5908 5908 5908 5909 5909 5908 5907 5907 5906 5906
5816 5817 5818 5820 5822 5826 5826 5826 5829 5832 5831 5834 5837 5845 5847 5849 5853 5860 5865 5868 5876 5881 5885 5886 5887 5890 5892 5894 5895 5897 5899 5899 5900 5902 5901 5903 5904 5905 5906 5906 5906 5906 5906 5907 5906 5906 5905 5904 5903
5808 5809 5810 5812 5813 5816 5819 5816 5820 5824 5826 5827 5830 5836 5841 5842 5845 5849 5854 5860 5864 5870 5876 5880 5883 5884 5887 5890 5892 5894 5896 5898 5898 5899 5900 5901 5901 5903 5905 5905 5905 5905 5905 5904 5904 5903 5903 5901 5900
5798 5799 5801 5802 5803 5803 5807 5804 5808 5814 5819 5821 5821 5826 5830 5834 5836 5838 5844 5850 5857 5862 5866 5872 5876 5878 5881 5885 5888 5889 5892 5894 5897 5897 5898 5899 5900 5900 5902 5903 5903 5903 5903 5902 5902 5902 5901 5900 5898
5786 5787 5788 5789 5791 5792 5797 5797 5798 5802 5807 5813 5816 5816 5821 5825 5829 5831 5834 5839 5847 5856 5860 5863 5866 5870 5874 5878 5883 5884 5888 5890 5891 5894 5896 5896 5898 5898 5898 5899 5900 5900 5900 5900 5900 5899 5899 5897 5894
5773 5772 5772 5774 5775 5777 5782 5784 5787 5789 5795 5802 5806 5808 5811 5815 5820 5822 5827 5830 5836 5843 5852 5858 5859 5863 5865 5872 5877 5880 5882 5885 5887 5889 5891 5893 5895 5895 5896 5896 5898 5898 5897 5898 5897 5896 5895 5893 5891
5758 5755 5756 5758 5759 5761 5764 5767 5773 5775 5780 5785 5793 5798 5800 5804 5808 5812 5817 5824 5829 5831 5839 5848 5854 5856 5858 5863 5871 5876 5878 5879 5882 5883 5886 5889 5891 5893 5893 5895 5895 5895 5894 5895 5894 5893 5892 5890 5887
5742 5741 5741 5741 5743 5743 5746 5751 5755 5760 5762 5768 5775 5784 5789 5790 5796 5801 5807 5814 5820 5824 5831 5836 5843 5849 5852 5854 5861 5870 5874 5875 5877 5879 5881 5884 5887 5889 5892 5892 5893 5893 5892 5891 5890 5889 5888 5886 5883
5726 5725 5725 5725 5724 5725 5727 5734 5738 5747 5747 5755 5759 5769 5774 5777 5784 5790 5796 5801 5809 5815 5821 5825 5833 5840 5844 5847 5850 5859 5867 5871 5874 5877 5878 5881 5883 5886 5888 5889 5891 5890 5889 5888 5887 5885 5883 5882 5879
5711 5712 5710 5710 5708 5710 5711 5718 5722 5726 5731 5739 5745 5752 5759 5764 5768 5777 5783 5791 5797 5806 5813 5818 5823 5831 5835 5840 5844 5849 5858 5866 5869 5872 5874 5877 5879 5880 5883 5886 5886 5886 5885 5885 5883 5881 5879 5877 5875
5704 5704 5703 5701 5700 5698 5697 5705 5713 5711 5713 5723 5731 5739 5743 5748 5754 5761 5769 5778 5788 5795 5802 5811 5812 5818 5823 5828 5837 5844 5852 5860 5863 5867 5870 5873 5874 5876 5879 5881 5881 5882 5881 5880 5879 5877 5875 5872 5870
5697 5699 5698 5698 5695 5693 5692 5698 5702 5699 5699 5705 5714 5722 5730 5734 5740 5745 5754 5763 5773 5781 5789 5802 5805 5808 5813 5824 5830 5837 5841 5853 5859 5862 5864 5866 5868 5870 5873 5875 5876 5876 5876 5876 5874 5874 5870 5867 5866
5692 5692 5691 5691 5690 5687 5687 5689 5689 5689 5687 5692 5697 5706 5713 5721 5729 5733 5740 5746 5757 5767 5777 5793 5799 5807 5809 5815 5821 5828 5837 5843 5852 5857 5859 5862 5864 5867 5867 5868 5869 5869 5870 5871 5870 5869 5866 5863 5860
5685 5685 5684 5685 5683 5681 5680 5681 5680 5680 5679 5683 5688 5691 5700 5710 5718 5722 5727 5733 5742 5749 5765 5778 5788 5798 5809 5813 5818 5827 5832 5840 5845 5851 5853 5856 5859 5861 5864 5864 5863 5864 5865 5865 5865 5864 5862 5858 5854
5678 5677 5678 5678 5677 5673 5672 5674 5674 5673 5673 5674 5680 5683 5688 5694 5702 5709 5718 5722 5733 5739 5749 5766 5779 5793 5803 5807 5812 5820 5824 5829 5836 5841 5846 5851 5854 5857 5858 5857 5856 5857 5858 5859 5858 5858 5855 5853 5849
5672 5672 5672 5670 5670 5667 5663 5666 5665 5667 5667 5668 5671 5675 5677 5683 5685 5693 5703 5711 5721 5732 5739 5753 5768 5785 5791 5799 5800 5807 5818 5825 5831 5837 5841 5844 5847 5849 5847 5846 5847 5848 5849 5851 5851 5852 5850 5847 5845
5666 5667 5664 5663 5661 5660 5658 5654 5660 5660 5659 5661 5662 5665 5671 5674 5674 5677 5686 5697 5707 5723 5730 5740 5759 5772 5778 5785 5792 5802 5814 5819 5824 5829 5832 5834 5837 5837 5837 5836 5840 5841 5844 5844 5844 5844 5844 5843 5841
5659 5657 5656 5654 5652 5651 5649 5646 5650 5652 5650 5651 5654 5655 5662 5664 5662 5665 5672 5682 5695 5708 5719 5731 5743 5759 5770 5778 5789 5796 5807 5813 5817 5819 5824 5824 5827 5828 5829 5830 5836 5837 5837 5836 5837 5837 5836 5838 5835
5652 5650 5649 5646 5643 5642 5640 5637 5644 5646 5643 5644 5648 5651 5653 5653 5653 5658 5663 5668 5680 5697 5706 5720 5732 5745 5758 5770 5781 5791 5799 5806 5810 5812 5815 5818 5822 5819 5821 5820 5822 5828 5827 5829 5830 5829 5832 5831 5827
5645 5643 5639 5638 5636 5635 5632 5630 5634 5638 5637 5637 5639 5642 5645 5647 5647 5650 5656 5663 5672 5688 5699 5709 5723 5734 5746 5761 5773 5784 5791 5797 5802 5805 5807 5813 5816 5812 5811 5811 5814 5817 5819 5821 5823 5825 5824 5823 5819
5639 5638 5633 5628 5628 5626 5624 5622 5623 5624 5629 5630 5632 5635 5639 5640 5639 5642 5647 5654 5665 5673 5690 5698 5712 5724 5737 5751 5764 5774 5781 5786 5792 5797 5800 5802 5804 5803 5802 5803 5805 5812 5814 5818 5818 5819 5818 5816 5812
5629 5629 5629 5623 5621 5616 5617 5616 5615 5614 5617 5622 5625 5628 5631 5632 5631 5633 5638 5645 5653 5662 5678 5689 5702 5714 5727 5741 5753 5765 5775 5779 5784 5791 5795 5795 5793 5797 5800 5801 5804 5808 5807 5812 5814 5815 5813 5810 5807
5624 5623 5620 5617 5611 5607 5608 5606 5604 5607 5607 5609 5614 5616 5621 5625 5625 5627 5632 5637 5642 5653 5666 5679 5692 5705 5720 5733 5744 5756 5765 5770 5778 5784 5791 5794 5795 5796 5794 5797 5801 5801 5804 5809 5810 5810 5807 5804 5803
5620 5616 5612 5608 5606 5600 5597 5597 5597 5599 5598 5598 5601 5606 5610 5614 5616 5617 5622 5628 5634 5639 5651 5669 5681 5693 5709 5724 5736 5747 5757 5764 5772 5780 5785 5789 5789 5794 5793 5794 5796 5798 5801 5804 5805 5804 5801 5800 5797
5612 5609 5606 5602 5600 5595 5592 5588 5592 5590 5588 5588 5591 5595 5598 5603 5607 5610 5614 5620 5625 5630 5639 5655 5670 5685 5701 5716 5729 5740 5751 5758 5767 5774 5778 5779 5784 5788 5789 5792 5793 5797 5800 5800 5798 5797 5797 5795 5793